Deming, NM

4:46 AM MST on December 11, 2017 (GMT -0700)
Deming Municipal

Weather History for KDMN - July, 2014

Change the Weather History Date:

Tuesday, July 1, 2014

  Actual Average Record
Temperature  
Mean Temperature 86 °F 81 °F  
Max Temperature 100 °F 97 °F 106 °F (2005)
Min Temperature 71 °F 64 °F 51 °F (1955)
Cooling Degree Days 21    
Growing Degree Days 36 (Base 50)    
Moisture  
Dew Point 39 °F    
Average Humidity 24    
Maximum Humidity 36    
Minimum Humidity 11    
Precipitation  
Precipitation 0.00 in 0.05 in 0.24 in (1970)
Month to date precipitation 0.00 0.05  
Year to date precipitation 0.60 3.16  
Sea Level Pressure  
Sea Level Pressure 29.77 in    
Wind  
Wind Speed 12 mph (NNW)    
Max Wind Speed 37 mph    
Max Gust Speed 45 mph    
Visibility 8 miles    
Events Thunderstorm    
T = Trace of Precipitation, MM = Missing Value Source: NWS Daily Summary

Daily Weather History Graph

Daily Weather History Graph

Search for Another Location

Airport or City:

Trip Planner

Search our weather history database for the weather conditions in past years. The results will help you decide how hot, cold, wet, or windy it might be!

Date:

Astronomy

Jul. 01, 2014 Rise Set
Actual Time 6:07 AM MDT 8:21 PM MDT
Civil Twilight 5:39 AM MDT 8:49 PM MDT
Nautical Twilight 5:04 AM MDT 9:24 PM MDT
Astronomical Twilight 4:27 AM MDT 10:01 PM MDT
Moon 10:03 AM MDT (7/1) 11:03 PM MDT (7/1)
Length of Visible Light 15h 10m
Length of Day
14h 13m
Waxing Crescent, 17% of the Moon is Illuminated
Jul 1
Waxing Crescent
Jul 5
First Quarter
Jul 12
Full
Jul 18
Last Quarter
Jul 26
New

Hourly Weather History & Observations

Time (MDT) Temp. Dew Point Humidity Pressure Visibility Wind Dir Wind Speed Gust Speed Precip Events Conditions
12:53 AM 82.0 °F 39.0 °F 22% 29.63 in 10.0 mi West 11.5 mph - N/A   Clear
1:53 AM 78.1 °F 39.0 °F 25% 29.64 in 10.0 mi West 8.1 mph - N/A   Clear
2:53 AM 79.0 °F 39.0 °F 24% 29.64 in 10.0 mi West 10.4 mph - N/A   Clear
3:53 AM 80.1 °F 37.9 °F 22% 29.62 in 10.0 mi WNW 12.7 mph - N/A   Clear
4:53 AM 75.0 °F 37.0 °F 25% 29.65 in 10.0 mi WSW 9.2 mph - N/A   Clear
5:53 AM 75.9 °F 37.0 °F 24% 29.67 in 10.0 mi WSW 9.2 mph - N/A   Clear
6:53 AM 73.9 °F 36.0 °F 25% 29.70 in 10.0 mi South 10.4 mph - N/A   Clear
7:53 AM 73.9 °F 35.1 °F 24% 29.73 in 10.0 mi South 5.8 mph - N/A   Clear
8:53 AM 78.1 °F 36.0 °F 22% 29.74 in 10.0 mi SW 11.5 mph - N/A   Clear
9:53 AM 87.1 °F 36.0 °F 16% 29.71 in 10.0 mi West 13.8 mph - N/A   Clear
10:53 AM 93.0 °F 35.1 °F 13% 29.71 in 10.0 mi WNW 12.7 mph - N/A   Clear
11:53 AM 93.9 °F 35.1 °F 13% 29.70 in 10.0 mi WNW 8.1 mph 17.3 mph N/A   Clear
12:53 PM 93.9 °F 36.0 °F 13% 29.70 in 10.0 mi Calm Calm - N/A   Scattered Clouds
1:53 PM 97.0 °F 36.0 °F 12% 29.68 in 10.0 mi SW 6.9 mph - N/A   Clear
2:53 PM 99.0 °F 36.0 °F 11% 29.67 in 10.0 mi South 8.1 mph 18.4 mph N/A   Clear
3:30 PM 99.0 °F 37.9 °F 12% 29.94 in 10.0 mi Variable 6.9 mph - N/A Thunderstorm Clear
3:53 PM 98.1 °F 37.9 °F 12% 29.67 in 10.0 mi North 12.7 mph - N/A Thunderstorm Clear
4:09 PM 93.9 °F 39.0 °F 15% 29.93 in 5.0 mi North 26.5 mph 34.5 mph N/A   Haze
4:53 PM 93.9 °F 37.0 °F 14% 29.66 in 10.0 mi NNE 21.9 mph 32.2 mph N/A   Clear
5:33 PM 91.0 °F 37.9 °F 15% 29.92 in 1.0 mi NNE 20.7 mph 40.3 mph N/A   Haze
5:36 PM 91.9 °F 37.0 °F 15% 29.92 in 2.0 mi North 25.3 mph 36.8 mph N/A   Haze
5:44 PM 91.9 °F 37.0 °F 15% 29.91 in 7.0 mi North 19.6 mph 33.4 mph N/A   Scattered Clouds
5:53 PM 93.0 °F 36.0 °F 13% 29.64 in 5.0 mi North 18.4 mph 33.4 mph N/A   Haze
6:53 PM 93.9 °F 35.1 °F 13% 29.67 in 10.0 mi NNE 20.7 mph 26.5 mph N/A   Clear
7:02 PM 89.1 °F 42.1 °F 19% 29.95 in 1.8 mi NE 31.1 mph 44.9 mph N/A   Haze
7:13 PM 86.0 °F 46.0 °F 25% 29.97 in 2.5 mi NE 23.0 mph 36.8 mph N/A Thunderstorm Haze
7:21 PM 84.9 °F 46.0 °F 26% 29.99 in 6.0 mi ENE 20.7 mph 32.2 mph N/A Thunderstorm Unknown
7:46 PM 82.9 °F 46.9 °F 28% 30.01 in 10.0 mi ENE 20.7 mph 34.5 mph N/A   Mostly Cloudy
7:53 PM 82.9 °F 46.0 °F 27% 29.77 in 8.0 mi ENE 24.2 mph 36.8 mph N/A   Mostly Cloudy
8:53 PM 80.1 °F 44.1 °F 28% 29.77 in 10.0 mi East 18.4 mph 27.6 mph N/A   Clear
9:53 PM 78.1 °F 46.9 °F 33% 29.75 in 10.0 mi East 13.8 mph 24.2 mph N/A   Clear
10:53 PM 77.0 °F 46.9 °F 34% 29.80 in 10.0 mi WNW 10.4 mph - N/A   Clear
11:53 PM 75.0 °F 46.9 °F 37% 29.81 in 10.0 mi North 5.8 mph - N/A   Clear